Franklin, PA

8:32 AM EST on December 06, 2019 (GMT -0500)
Venango Regional

Weather History for KFKL - October, 2019

Change the Weather History Date:

Tuesday, October 22, 2019

  Actual Average Record
Temperature  
Mean Temperature 52 °F -  
Max Temperature 57 °F 59 °F 85 °F (1935)
Min Temperature 48 °F 37 °F 23 °F (1952)
Degree Days  
Heating Degree Days 12    
Growing Degree Days 2 (Base 50)    
Moisture  
Dew Point 51 °F    
Average Humidity 90    
Maximum Humidity 100    
Minimum Humidity 66    
Precipitation  
Precipitation 0.70 in - - ()
Sea Level Pressure  
Sea Level Pressure 29.80 in    
Wind  
Wind Speed 9 mph (South)    
Max Wind Speed 15 mph    
Max Gust Speed 21 mph    
Visibility 8 miles    
Events Rain    
Averages and records for this station are not official NWS values.
T = Trace of Precipitation, MM = Missing Value Source: NWS Daily Summary

Daily Weather History Graph

Daily Weather History Graph

Search for Another Location

Airport or City:

Astronomy

Oct. 22, 2019 Rise Set
Actual Time 7:38 AM EDT 6:28 PM EDT
Civil Twilight 7:10 AM EDT 6:56 PM EDT
Nautical Twilight 6:38 AM EDT 7:28 PM EDT
Astronomical Twilight 6:06 AM EDT 8:00 PM EDT
Moon 12:41 AM EDT (10/22) 3:41 PM EDT (10/22)
Length of Visible Light 11h 45m
Length of Day
10h 49m
Last Quarter, 37% of the Moon is Illuminated
Oct 22
Last Quarter
Oct 27
New
Nov 4
First Quarter
Nov 12
Full
Nov 19
Last Quarter

Hourly Weather History & Observations

Time (EDT) Temp. Dew Point Humidity Pressure Visibility Wind Dir Wind Speed Gust Speed Precip Events Conditions
12:56 AM 57.9 °F 48.9 °F 72% 29.85 in 10.0 mi SE 13.8 mph - N/A   Overcast
1:56 AM 57.9 °F 50.0 °F 75% 29.83 in 10.0 mi SE 11.5 mph - N/A   Overcast
2:56 AM 57.9 °F 50.0 °F 75% 29.81 in 10.0 mi SE 10.4 mph 19.6 mph N/A   Overcast
3:56 AM 57.0 °F 51.1 °F 81% 29.80 in 10.0 mi SE 11.5 mph - 0.00 in   Overcast
4:43 AM 55.4 °F 51.8 °F 88% 29.81 in 10.0 mi South 8.1 mph - 0.00 in Rain Light Rain
4:56 AM 55.9 °F 52.0 °F 87% 29.81 in 8.0 mi South 8.1 mph - 0.00 in Rain Light Rain
5:27 AM 53.6 °F 53.6 °F 100% 29.83 in 4.0 mi South 5.8 mph - 0.04 in Rain Rain
5:41 AM 53.6 °F 53.6 °F 100% 29.82 in 5.0 mi SSE 8.1 mph - 0.06 in Rain Light Rain
5:56 AM 54.0 °F 53.1 °F 97% 29.81 in 6.0 mi SE 9.2 mph - 0.07 in Rain Light Rain
6:07 AM 53.6 °F 53.6 °F 100% 29.81 in 8.0 mi SE 9.2 mph - 0.00 in Rain Light Rain
6:28 AM 55.4 °F 53.6 °F 94% 29.81 in 4.0 mi Calm Calm - 0.01 in Rain Light Rain
6:44 AM 55.4 °F 53.6 °F 94% 29.80 in 4.0 mi Calm Calm - 0.01 in Rain Light Rain
6:56 AM 55.0 °F 54.0 °F 96% 29.80 in 2.5 mi SE 5.8 mph - 0.02 in Rain Rain
7:14 AM 55.4 °F 53.6 °F 94% 29.79 in 4.0 mi SSE 11.5 mph - 0.02 in Rain Light Rain
7:56 AM 55.0 °F 54.0 °F 96% 29.81 in 4.0 mi South 12.7 mph - 0.13 in Rain Rain
8:23 AM 55.4 °F 53.6 °F 94% 29.80 in 8.0 mi SSE 6.9 mph - 0.06 in Rain Light Rain
8:49 AM 55.4 °F 53.6 °F 94% 29.80 in 4.0 mi SE 8.1 mph - 0.11 in Rain Rain
8:56 AM 55.0 °F 54.0 °F 96% 29.80 in 5.0 mi SSE 6.9 mph - 0.12 in Rain Rain
9:10 AM 55.4 °F 53.6 °F 94% 29.82 in 4.0 mi SSW 5.8 mph - 0.10 in Rain Heavy Rain
9:42 AM 55.4 °F 53.6 °F 94% 29.85 in 8.0 mi SSW 5.8 mph - 0.21 in Rain Rain
9:56 AM 55.0 °F 54.0 °F 96% 29.83 in 4.0 mi SSE 5.8 mph - 0.26 in Rain Rain
10:56 AM 55.0 °F 54.0 °F 96% 29.79 in 9.0 mi SSE 8.1 mph - 0.08 in Rain Light Rain
11:47 AM 55.4 °F 53.6 °F 94% 29.76 in 10.0 mi SE 9.2 mph - 0.01 in Rain Light Rain
11:56 AM 55.0 °F 54.0 °F 96% 29.76 in 10.0 mi SE 10.4 mph - 0.01 in Rain Light Rain
12:04 PM 55.4 °F 53.6 °F 94% 29.78 in 10.0 mi SSE 9.2 mph - 0.00 in   Overcast
12:56 PM 54.0 °F 52.0 °F 93% 29.80 in 10.0 mi South 15.0 mph - 0.01 in   Overcast
1:56 PM 54.0 °F 52.0 °F 93% 29.76 in 10.0 mi South 10.4 mph - N/A   Overcast
2:53 PM 53.6 °F 51.8 °F 94% 29.76 in 10.0 mi South 10.4 mph - N/A   Overcast
2:56 PM 54.0 °F 52.0 °F 93% 29.76 in 10.0 mi South 10.4 mph - N/A   Overcast
3:25 PM 53.6 °F 51.8 °F 94% 29.75 in 10.0 mi South 11.5 mph - N/A   Overcast
3:56 PM 55.0 °F 52.0 °F 89% 29.76 in 10.0 mi South 13.8 mph 20.7 mph N/A   Overcast
4:34 PM 55.4 °F 51.8 °F 88% 29.75 in 10.0 mi SSW 11.5 mph - N/A   Mostly Cloudy
4:56 PM 55.9 °F 50.0 °F 80% 29.75 in 10.0 mi South 11.5 mph - N/A   Overcast
5:28 PM 55.4 °F 50.0 °F 82% 29.75 in 10.0 mi South 9.2 mph - N/A   Scattered Clouds
5:56 PM 54.0 °F 50.0 °F 86% 29.77 in 10.0 mi South 8.1 mph - N/A   Partly Cloudy
6:56 PM 53.1 °F 50.0 °F 89% 29.79 in 10.0 mi South 9.2 mph - N/A   Mostly Cloudy
7:56 PM 51.1 °F 48.9 °F 92% 29.82 in 10.0 mi SW 5.8 mph - N/A   Partly Cloudy
8:56 PM 50.0 °F 48.0 °F 93% 29.84 in 10.0 mi WSW 5.8 mph - N/A   Mostly Cloudy
9:56 PM 48.9 °F 43.0 °F 80% 29.86 in 10.0 mi West 8.1 mph - N/A   Mostly Cloudy
10:56 PM 48.9 °F 39.9 °F 71% 29.87 in 10.0 mi WSW 6.9 mph - N/A   Mostly Cloudy
11:56 PM 48.9 °F 37.9 °F 66% 29.88 in 10.0 mi WSW 6.9 mph - N/A   Scattered Clouds